IU1DOF-3 Weather Reports


time (UTC)temp
C
wind
direction
speed
KPH
gust
KPH
rain 1hr
cm
rain 24hr
cm
rain mn
cm
humidity
%
barometer
mb
20260506185240 11 298 3.2 4.8 0.00 0.00 0.51 85 1006.8
20260506184218 11 289 1.6 3.2 0.00 0.00 0.51 82 1006.3
20260506183154 11 309 4.8 4.8 0.00 0.00 0.51 79 1006.3
20260506182141 12 312 6.4 6.4 0.00 0.00 0.51 74 1006.2
20260506181122 12 308 3.2 4.8 0.00 0.00 0.51 74 1005.9
20260506180059 15 312 1.6 3.2 0.00 0.00 0.51 70 1005.5
20260506175040 15 304 0.0 0.0 0.00 0.00 0.51 70 1005.4
20260506174026 16 285 1.6 3.2 0.00 0.00 0.51 73 1005.5
20260506173002 18 310 0.0 1.6 0.00 0.00 0.51 66 1005.3
20260506171938 18 239 0.0 0.0 0.00 0.00 0.51 65 1005.2
20260506170914 18 268 1.6 3.2 0.00 0.00 0.51 66 1005.1
20260506165851 18 204 0.0 1.6 0.00 0.00 0.51 68 1004.8
20260506164840 18 191 1.6 3.2 0.00 0.00 0.51 66 1005.1
20260506163819 18 266 3.2 4.8 0.00 0.00 0.51 64 1004.9
20260506162754 18 252 0.0 1.6 0.00 0.00 0.51 64 1005.0
20260506161740 19 268 6.4 6.4 0.00 0.00 0.51 61 1004.9
20260506160722 19 134 1.6 1.6 0.00 0.00 0.51 62 1004.7
20260506155659 20 147 0.0 1.6 0.00 0.00 0.51 63 1004.6
20260506154640 18 246 1.6 3.2 0.00 0.00 0.51 67 1004.5
20260506153626 19 263 8.0 9.7 0.00 0.00 0.51 63 1004.8
20260506152602 20 351 1.6 3.2 0.00 0.00 0.51 50 1004.7
20260506151538 20 133 6.4 8.0 0.00 0.00 0.51 33 1004.9
20260506150514 19 46 3.2 6.4 0.00 0.00 0.51 38 1004.7
20260506145450 19 9 3.2 4.8 0.00 0.00 0.51 43 1004.9
20260506144440 18 308 4.8 4.8 0.00 0.00 0.51 54 1004.8
20260506143419 17 333 0.0 0.0 0.00 0.00 0.51 45 1004.8
20260506142354 14 310 0.0 1.6 0.00 0.00 0.51 65 1004.9
20260506141340 13 310 1.6 3.2 0.00 0.00 0.51 77 1005.0
20260506140323 16 307 3.2 3.2 0.00 0.00 0.51 70 1004.9
20260506135259 16 325 1.6 3.2 0.00 0.00 0.51 55 1005.0
20260506134239 17 194 1.6 3.2 0.00 0.00 0.51 38 1005.0
20260506133227 17 42 6.4 8.0 0.00 0.00 0.51 41 1005.0
20260506132203 17 22 3.2 6.4 0.00 0.00 0.51 44 1005.1
20260506131140 17 99 9.7 14.5 0.00 0.00 0.51 42 1005.3
20260506130130 17 21 9.7 12.9 0.00 0.00 0.51 40 1005.3
20260506125106 17 123 8.0 14.5 0.00 0.00 0.51 41 1005.2
20260506124059 17 35 3.2 6.4 0.00 0.00 0.51 43 1005.2
20260506123035 17 27 1.6 3.2 0.00 0.00 0.51 44 1005.0
20260506122027 17 129 6.4 8.0 0.00 0.00 0.51 42 1005.1
20260506121003 18 107 3.2 4.8 0.00 0.00 0.51 46 1005.0
20260506115941 18 5 3.2 6.4 0.00 0.00 0.51 39 1004.8
20260506114932 18 277 1.6 3.2 0.00 0.00 0.51 48 1005.1
20260506113923 18 17 6.4 9.7 0.00 0.00 0.51 37 1005.1
20260506112859 18 2 1.6 3.2 0.00 0.00 0.51 46 1004.9
20260506111836 18 113 4.8 4.8 0.00 0.00 0.51 40 1005.3
20260506110811 17 82 6.4 9.7 0.00 0.00 0.51 45 1005.1
20260506105803 17 137 1.6 3.2 0.00 0.00 0.51 42 1005.4
20260506104754 17 336 6.4 8.0 0.00 0.00 0.51 52 1005.3
20260506103740 17 298 0.0 1.6 0.00 0.00 0.51 69 1005.7
20260506102723 16 297 1.6 6.4 0.00 0.00 0.51 69 1005.7
20260506101659 16 298 0.0 1.6 0.00 0.00 0.51 67 1005.6
20260506100640 16 297 3.2 4.8 0.00 0.00 0.51 68 1005.8
20260506095627 16 297 6.4 8.0 0.00 0.00 0.51 66 1005.7
20260506094603 16 297 0.0 0.0 0.00 0.00 0.51 70 1005.6
20260506093539 15 297 1.6 1.6 0.00 0.00 0.51 68 1005.9
20260506092515 15 297 1.6 3.2 0.00 0.00 0.51 69 1006.0
20260506091452 15 297 1.6 3.2 0.00 0.00 0.51 71 1005.8
20260506090441 15 297 0.0 1.6 0.00 0.00 0.51 72 1005.7
20260506085422 13 297 0.0 0.0 0.00 0.00 0.51 74 1005.9
20260506084355 13 297 3.2 4.8 0.00 0.00 0.51 77 1006.0
20260506083340 13 296 0.0 0.0 0.00 0.00 0.51 78 1005.9
20260506082323 13 296 0.0 1.6 0.00 0.00 0.51 76 1005.8
20260506081300 12 295 0.0 1.6 0.00 0.00 0.51 78 1005.9
20260506080241 11 296 0.0 1.6 0.00 0.00 0.51 80 1006.0
20260506073139 11 295 1.6 1.6 0.00 0.00 0.51 82 1006.3
20260506072116 11 295 0.0 1.6 0.00 0.00 0.51 83 1006.6
20260506071051 10 295 0.0 1.6 0.00 0.00 0.51 84 1006.6
20260506061923 8 294 1.6 3.2 0.00 0.00 0.51 98 1006.8
20260506060901 8 294 0.0 1.6 0.00 0.00 0.51 99 1006.9
20260506050651 7 295 0.0 0.0 0.00 0.00 0.51 99 1007.0
20260506044620 7 295 0.0 0.0 0.00 0.00 0.51 99 1007.2
20260506043555 7 296 0.0 0.0 0.00 0.00 0.51 99 1007.2
20260506042540 7 296 0.0 0.0 0.00 0.00 0.51 99 1007.1
20260506041524 7 295 0.0 1.6 0.00 0.00 0.51 99 1007.3
20260506040459 7 295 0.0 0.0 0.00 0.00 0.51 99 1007.3
20260506035440 7 295 0.0 0.0 0.00 0.00 0.51 99 1007.6
20260506034428 7 296 0.0 1.6 0.10 0.00 0.51 99 1007.7
20260506033403 7 296 0.0 0.0 0.28 0.00 0.48 99 1008.1
20260506032339 7 296 0.0 1.6 0.46 0.00 0.43 99 1007.9
20260506031315 7 295 0.0 0.0 0.46 0.00 0.36 99 1007.7
20260506030252 7 295 0.0 0.0 0.41 0.00 0.28 99 1007.9
20260506025240 7 295 0.0 0.0 0.28 0.00 0.20 99 1008.1
20260506024220 8 295 0.0 0.0 0.00 0.00 0.15 99 1007.9
20260506023155 8 295 0.0 0.0 0.00 0.00 0.15 99 1008.2
20260506022140 8 295 0.0 0.0 0.18 0.00 0.15 99 1008.0
20260506021123 8 295 0.0 0.0 0.10 0.00 0.13 99 1008.1
20260506020100 8 295 0.0 0.0 0.18 0.00 0.10 99 1008.0
20260506015040 8 295 0.0 0.0 0.00 0.00 0.08 99 1008.5
20260506014027 8 295 0.0 0.0 0.00 0.00 0.08 99 1008.2
20260506013003 8 295 0.0 0.0 0.00 0.00 0.08 99 1008.2
20260506011939 8 295 0.0 0.0 0.00 0.00 0.08 99 1008.6
20260506010915 8 295 0.0 0.0 0.00 0.00 0.08 99 1008.5
20260506005851 8 295 0.0 0.0 0.00 0.00 0.08 99 1008.8
20260506004840 8 295 0.0 0.0 0.00 0.00 0.08 99 1008.8
20260506003819 8 295 0.0 0.0 0.00 0.00 0.08 99 1008.9
20260506002755 8 295 0.0 0.0 0.00 0.00 0.08 99 1009.2
20260506001740 8 295 0.0 0.0 0.00 0.00 0.08 99 1009.1
20260506000723 8 295 0.0 0.0 0.10 0.00 0.08 99 1009.4
20260505235700 8 295 0.0 0.0 0.18 0.00 0.05 99 1009.6
20260505234640 8 295 0.0 0.0 0.18 0.00 0.03 99 1010.0
20260505233627 8 295 0.0 0.0 0.00 0.00 0.00 99 1009.9
20260505232603 8 295 0.0 0.0 0.00 0.00 0.00 99 1010.1
20260505231539 8 295 0.0 0.0 0.00 0.00 0.00 99 1010.3
20260505230515 8 295 0.0 0.0 0.00 0.00 0.00 99 1010.1
20260505225452 8 295 0.0 0.0 0.00 0.00 1.80 99 1010.4
20260505224441 8 295 0.0 0.0 0.00 0.00 1.80 99 1010.3
20260505223421 8 295 0.0 0.0 0.00 0.00 1.80 99 1010.0
20260505222355 8 295 0.0 0.0 0.00 0.00 1.80 99 1010.3
20260505221340 8 295 0.0 0.0 0.00 0.00 1.80 99 1010.0
20260505220323 8 295 0.0 0.0 0.00 0.00 1.80 99 1010.6
20260505215300 8 295 0.0 0.0 0.00 0.00 1.80 99 1010.3
20260505214240 8 295 0.0 0.0 0.00 0.00 1.80 99 1010.6
20260505213228 8 295 0.0 0.0 0.00 0.00 1.80 99 1010.5
20260505212204 9 295 0.0 0.0 0.00 0.00 1.80 99 1010.6
20260505211139 9 295 0.0 0.0 0.00 0.00 1.80 99 1010.7
20260505210115 9 295 0.0 0.0 0.00 0.00 1.80 99 1010.9
20260505205052 9 294 0.0 0.0 0.00 0.00 1.80 99 1010.8
20260505204040 9 295 0.0 0.0 0.00 0.00 1.80 99 1011.0
20260505203020 9 295 0.0 0.0 0.00 0.00 1.80 99 1011.1
20260505201956 9 295 0.0 0.0 0.00 0.00 1.80 99 1011.0
20260505200941 9 295 0.0 0.0 0.00 0.00 1.80 99 1011.0
20260505195923 9 295 0.0 0.0 0.00 0.00 1.80 99 1010.8
20260505194859 9 295 0.0 0.0 0.00 0.00 1.80 99 1010.8
20260505193840 9 294 0.0 0.0 0.00 0.00 1.80 99 1010.7
20260505192828 9 294 0.0 0.0 0.00 0.00 1.80 99 1010.6
20260505191803 9 295 0.0 0.0 0.00 0.00 1.80 98 1010.6
20260505190740 9 295 0.0 0.0 0.00 0.00 1.80 98 1010.4
20260505185716 9 294 0.0 0.0 0.00 0.00 1.80 98 1010.5